Regional Weather Roundup
Issued by NWS State College, PA

Home | Current Version | Previous Version | Text Only | Print | Product List | Glossary On
Versions: 1 2 3 4 5 6 7 8 9 10 11 12 13 14 15 16 17 18 19 20 21 22 23 24 25 26 27 28 29 30 31 32 33 34 35 36 37 38 39 40 41 42 43 44 45 46 47 48 49 50
479
ASUS41 KCTP 211410
RWRCTP

REGIONAL WEATHER ROUNDUP
NATIONAL WEATHER SERVICE STATE COLLEGE PA
1000 AM EDT THU MAY 21 2015

Note: "fair" indicates few or no clouds below 12,000 feet with no
significant weather and/or obstructions to visibility.

* = STATION THAT DOES NOT REPORT PRECIPITATION /E.G. RAIN...SNOW...ETC/
    THUNDER OR FOG.

PAZ002>004-007>009-013>016-020>023-029>032-211500-
WESTERN PENNSYLVANIA

CITY           SKY/WX    TMP DP  RH WIND       PRES   REMARKS
ERIE           CLOUDY    54  34  46 NW6       30.01R
MEADVILLE      CLOUDY    50  34  54 VRB3      29.99S
FRANKLIN*      CLOUDY    46  36  66 SE7       30.01R
NEW CASTLE     CLOUDY    50  40  68 E6        30.01S
BEAVER COUNTY  PTSUNNY   50  39  66 CALM      29.99F
BUTLER*        MOSUNNY   48  41  76 E9        30.00F
PITTSBURGH INT CLOUDY    49  41  74 NE9       29.98S
PITTSBURGH     PTSUNNY   49  42  77 E9        29.96F
INDIANA*       CLOUDY    46  45  93 E7        30.02F
LATROBE        CLOUDY    48  48 100 NE7       30.00F
WASHINGTON CO* CLOUDY    48  45  87 E7        29.99S
$$

PAZ004>006-010>012-017>019-024>028-033>037-041-042-045-046-049>053-211500-
CENTRAL PENNSYLVANIA

CITY           SKY/WX    TMP DP  RH WIND       PRES   REMARKS
BRADFORD       CLOUDY    46  34  62 SE6       29.98F
DUBOIS         CLOUDY    47  40  76 E6        29.99F
CLEARFIELD     CLOUDY    45  41  86 E6        30.01F
JOHNSTOWN      CLOUDY    44  42  93 E5        29.97F FOG
ALTOONA        CLOUDY    47  43  86 SE6       30.00F
STATE COLLEGE  CLOUDY    46  43  87 NE9       30.02S
WILLIAMSPORT   LGT RAIN  50  45  83 NW5       30.02F
SELINSGROVE    LGT RAIN  52  45  77 CALM      30.03F
FT INDIANTOWN  LGT RAIN  54  41  62 SW5       30.02S
CAPITAL CITY   CLOUDY    53  42  66 W3        30.03S
HARRISBURG     CLOUDY    54  40  59 N3        30.02F
YORK           LGT RAIN  53  43  68 CALM      30.03R
$$

PAZ038>040-043-044-047-048-054-055-060>062-067>071-211500-
EASTERN PENNSYLVANIA

CITY           SKY/WX    TMP DP  RH WIND       PRES   REMARKS
SCRANTON       CLOUDY    51  39  63 CALM      30.01S
MOUNT POCONO   CLOUDY    49  29  46 CALM      30.00S
ALLENTOWN      CLOUDY    55  34  45 NE3       30.02S
QUAKERTOWN*    CLOUDY    54  34  47 E3        30.03S
READING        CLOUDY    54  36  50 CALM      30.01F
LANCASTER      CLOUDY    54  38  54 NE3       30.02S
COATESVILLE    CLOUDY    52  37  58 CALM      30.03S
POTTSTOWN      CLOUDY    52  40  63 NE3       30.03S
BLUE BELL      CLOUDY    54  37  54 CALM      30.01S
DOYLESTOWN     CLOUDY    53  35  50 N6        30.01S
WILLOW GROVE   NOT AVBL
NORTH PHILA    CLOUDY    57  36  45 NE5       30.03S
PHILADELPHIA   LGT RAIN  57  40  52 CALM      30.03R
$$



USA.gov is the U.S. government's official web portal to all federal, state and local government web resources and services.